Weather in Zashizhem'ye

Russia / Mari El Republic     56°57′55″N   49°22′50″E
temp.,
°C
wind,
m/s
gust,
m/s
humid.,
%
clouds,
%
prec.,
mm/h
press.,
hPa
HPBL,
m
28 february, sun
sun2800:00−19n499661 0.0 1007157
03:00−20n499837 0.0 1008158
06:00−21n489861 0.0 1009150
09:00−19n479554 0.0 1010245
12:00−15n479160 0.0 1011398
15:00−14n588975 0.0 1012493
18:00−18n359670 0.0 101485
21:00−20n349840 0.0 101644
1 march, mon
mon100:00−21nnw34980 0.0 101840
03:00−22nnw33980 0.0 102030
06:00−23nnw23970 0.0 102120
09:00−20nw11940 0.0 102183
12:00−15w238719 0.0 1020270
15:00−13wsw359025 0.0 1019282
18:00−14ssw369683 0.0 1016110
21:00−13ssw599692 0.0 1014254
2 march, tue
tue200:00−12ssw61195100 0.1 1010298
03:00−9ssw71494100 0.8 1005450
06:00−6ssw71393100 0.9 1001482
09:00−4ssw61196100 2.0 998460
12:00−1ssw5999100 1.0 996471
15:000wnw4799100 2.6 996411
18:000nw4898100 1.2 996458
21:00−2nnw51091100 1.5 997360
3 march, wed
wed300:00−6nnw4893100 0.0 998169
03:00−8nw3597100 0.0 99987
06:00−9nw479796 0.0 1000143
09:00−7nw599588 0.1 1001293
12:00−4nw699295 0.1 1002616
15:00−3nnw6109397 0.3 1004759
18:00−7nw51189100 0.3 1005336
21:00−9nw5129350 0.3 1008288
4 march, thu
thu400:00−11wnw499534 0.0 1008191
03:00−13w479744 0.0 1008132
06:00−12w489688 0.1 1008201
09:00−10wsw5109393 0.1 1006289
12:00−5sw71388100 0.0 1003589
15:00−3sw91591100 0.4 1000962
18:00−2sw91694100 0.6 997859
21:000wsw91793100 0.9 9941028